�������l�o���
Date,Time,MP-1(��Sv/h),MP-2(��Sv/h),MP-3(��Sv/h),MP-4(��Sv/h),MP-5(��Sv/h),MP-6(��Sv/h),MP-7(��Sv/h),����,����(m/s),���J
2017/06/16,00:00,0.366,0.225,0.376,0.348,0.327,0.189,0.118,��쐼,4.3,�L
2017/06/16,00:10,0.362,0.226,0.374,0.350,0.331,0.188,0.118,��쐼,5.2,�L
2017/06/16,00:20,0.367,0.227,0.376,0.350,0.329,0.190,0.119,��쐼,5.9,�L
2017/06/16,00:30,0.364,0.227,0.378,0.353,0.332,0.190,0.121,�쐼,5.1,�L
2017/06/16,00:40,0.367,0.228,0.376,0.350,0.329,0.191,0.120,��쐼,5.6,�L
2017/06/16,00:50,0.365,0.228,0.379,0.351,0.330,0.190,0.120,��쐼,6.2,�L
2017/06/16,01:00,0.368,0.228,0.378,0.351,0.331,0.193,0.122,��쐼,4.8,�L
2017/06/16,01:10,0.366,0.230,0.378,0.355,0.332,0.193,0.123,��쐼,5.4,�L
2017/06/16,01:20,0.371,0.231,0.380,0.353,0.333,0.195,0.123,��쐼,5.6,�L
2017/06/16,01:30,0.367,0.233,0.381,0.358,0.333,0.195,0.124,��쐼,6.0,�L
2017/06/16,01:40,0.370,0.235,0.380,0.353,0.334,0.196,0.125,��쐼,7.1,�L
2017/06/16,01:50,0.369,0.232,0.382,0.356,0.334,0.195,0.125,��쐼,4.8,��
2017/06/16,02:00,0.372,0.231,0.377,0.352,0.333,0.192,0.123,��쐼,5.0,��
2017/06/16,02:10,0.367,0.229,0.380,0.355,0.330,0.193,0.123,��쐼,5.6,��
2017/06/16,02:20,0.366,0.230,0.376,0.350,0.332,0.193,0.121,��쐼,4.8,��
2017/06/16,02:30,0.366,0.228,0.377,0.352,0.329,0.189,0.120,��쐼,6.2,��
2017/06/16,02:40,0.365,0.228,0.375,0.349,0.329,0.190,0.119,��쐼,6.2,��
2017/06/16,02:50,0.363,0.225,0.376,0.351,0.326,0.189,0.119,�쐼,5.6,��
2017/06/16,03:00,0.364,0.227,0.373,0.346,0.329,0.188,0.118,�쐼,3.8,��
2017/06/16,03:10,0.364,0.226,0.374,0.349,0.328,0.188,0.117,�쐼,3.1,��
2017/06/16,03:20,0.363,0.225,0.374,0.346,0.330,0.187,0.118,�쐼,3.0,��
2017/06/16,03:30,0.362,0.224,0.374,0.349,0.327,0.187,0.117,�쐼,2.0,��
2017/06/16,03:40,0.363,0.225,0.371,0.348,0.328,0.187,0.117,��,1.1,��
2017/06/16,03:50,0.364,0.225,0.375,0.349,0.327,0.187,0.116,���쐼,0.7,��
2017/06/16,04:00,0.362,0.223,0.371,0.346,0.327,0.187,0.117,��쐼,2.5,��
2017/06/16,04:10,0.362,0.225,0.375,0.348,0.325,0.187,0.116,��쐼,2.0,��
2017/06/16,04:20,0.363,0.223,0.371,0.346,0.328,0.187,0.115,��쐼,1.9,��
2017/06/16,04:30,0.363,0.225,0.374,0.347,0.326,0.187,0.116,��쐼,2.9,��
2017/06/16,04:40,0.361,0.223,0.370,0.347,0.327,0.186,0.116,��쐼,2.8,��
2017/06/16,04:50,0.364,0.224,0.372,0.348,0.326,0.187,0.116,��쐼,3.3,��
2017/06/16,05:00,0.362,0.224,0.372,0.346,0.327,0.186,0.115,��,3.6,��
2017/06/16,05:10,0.363,0.225,0.374,0.347,0.326,0.187,0.115,��,3.3,��
2017/06/16,05:20,0.362,0.224,0.372,0.347,0.328,0.186,0.116,��,2.5,��
2017/06/16,05:30,0.363,0.224,0.374,0.349,0.325,0.186,0.116,��쐼,2.7,��
2017/06/16,05:40,0.362,0.224,0.371,0.346,0.327,0.187,0.116,��쐼,3.4,��
2017/06/16,05:50,0.362,0.223,0.372,0.346,0.323,0.186,0.116,��쐼,3.7,��
2017/06/16,06:00,0.362,0.224,0.374,0.348,0.327,0.186,0.116,��쐼,3.1,��
2017/06/16,06:10,0.364,0.224,0.372,0.347,0.324,0.185,0.115,��쐼,2.9,��
2017/06/16,06:20,0.361,0.222,0.373,0.347,0.327,0.187,0.115,��쐼,2.0,��
2017/06/16,06:30,0.363,0.224,0.372,0.348,0.328,0.186,0.116,-,CALM,��
2017/06/16,06:40,0.360,0.222,0.371,0.346,0.325,0.187,0.115,-,CALM,��
2017/06/16,06:50,0.364,0.223,0.372,0.347,0.329,0.186,0.116,�k,1.1,��
2017/06/16,07:00,0.361,0.225,0.370,0.345,0.326,0.188,0.116,-,CALM,��
2017/06/16,07:10,0.363,0.224,0.373,0.347,0.327,0.186,0.116,�k��,0.7,��
2017/06/16,07:20,0.363,0.223,0.370,0.347,0.329,0.187,0.115,�k,1.1,��
2017/06/16,07:30,0.361,0.222,0.366,0.343,0.326,0.187,0.115,-,CALM,��
2017/06/16,07:40,0.364,0.224,0.371,0.346,0.326,0.186,0.116,�k��,1.5,��
2017/06/16,07:50,0.362,0.224,0.371,0.347,0.329,0.187,0.116,�k��,1.5,��
2017/06/16,08:00,0.362,0.225,0.369,0.344,0.325,0.187,0.116,�k�k��,2.0,��
2017/06/16,08:10,0.364,0.224,0.368,0.343,0.323,0.186,0.115,�k�k��,3.5,��
2017/06/16,08:20,0.361,0.224,0.372,0.348,0.327,0.187,0.116,�k�k��,5.0,��
2017/06/16,08:30,0.364,0.225,0.371,0.348,0.331,0.186,0.116,�k��,5.6,��
2017/06/16,08:40,0.362,0.224,0.370,0.346,0.327,0.185,0.115,�k�k��,7.1,��
2017/06/16,08:50,0.359,0.222,0.368,0.343,0.324,0.185,0.114,�k,8.1,�L
2017/06/16,09:00,0.362,0.226,0.369,0.340,0.327,0.191,0.118,���쓌,2.9,�L
2017/06/16,09:10,0.363,0.228,0.370,0.349,0.331,0.196,0.122,�k�k��,3.8,�L
2017/06/16,09:20,0.366,0.232,0.374,0.350,0.335,0.198,0.123,�k�k��,3.8,�L
2017/06/16,09:30,0.365,0.230,0.372,0.352,0.334,0.195,0.123,�k�k��,3.1,��
2017/06/16,09:40,0.368,0.231,0.372,0.350,0.331,0.194,0.122,�k�k��,2.3,��
2017/06/16,09:50,0.365,0.229,0.371,0.346,0.331,0.191,0.120,�k,1.9,��
2017/06/16,10:00,0.359,0.226,0.368,0.348,0.329,0.188,0.120,�k,2.2,��
2017/06/16,10:10,0.362,0.224,0.372,0.345,0.326,0.187,0.118,�k�k��,2.2,��
2017/06/16,10:20,0.361,0.224,0.367,0.343,0.326,0.185,0.117,�k�k��,1.6,��
2017/06/16,10:30,0.359,0.224,0.365,0.341,0.329,0.187,0.117,���k��,0.6,��
2017/06/16,10:40,0.356,0.223,0.362,0.340,0.326,-,0.116,-,CALM,��
2017/06/16,10:50,0.360,0.221,0.367,0.339,0.324,-,0.116,��,0.7,��
2017/06/16,11:00,0.360,0.222,0.366,0.345,0.322,-,0.115,��,1.9,��
2017/06/16,11:10,0.358,0.223,0.364,0.344,0.323,-,0.114,��쓌,2.1,��
2017/06/16,11:20,0.356,0.222,0.364,0.342,0.323,-,0.114,��쓌,2.7,��
2017/06/16,11:30,0.357,0.222,0.362,0.340,0.323,-,0.114,��쓌,2.8,��
2017/06/16,11:40,0.360,0.220,0.362,0.339,0.328,-,0.113,��쓌,2.4,��
2017/06/16,11:50,0.359,0.222,0.363,0.338,0.327,-,0.113,��쓌,2.7,��
2017/06/16,12:00,0.359,0.222,0.367,0.340,0.324,-,0.113,�쓌,2.7,��
2017/06/16,12:10,0.356,0.221,0.366,0.342,0.323,-,0.114,�쓌,2.7,��
2017/06/16,12:20,0.357,0.220,0.365,0.342,0.322,-,0.114,���쓌,1.8,��
2017/06/16,12:30,0.360,0.223,0.363,0.340,0.320,-,0.114,���쓌,1.6,��
2017/06/16,12:40,0.360,0.223,0.363,0.339,0.323,-,0.113,�쓌,2.2,��
2017/06/16,12:50,0.355,0.220,0.362,0.338,0.329,-,0.113,���쓌,1.9,��
2017/06/16,13:00,0.361,0.221,0.368,0.339,0.329,-,0.114,��,1.8,��
2017/06/16,13:10,0.362,0.223,0.369,0.345,0.324,-,0.113,���k��,1.9,��
2017/06/16,13:20,0.357,0.221,0.364,0.343,0.325,-,0.113,�k��,2.8,��
2017/06/16,13:30,0.362,0.222,0.365,0.340,0.329,-,0.112,�k��,2.4,��
2017/06/16,13:40,0.362,0.223,0.370,0.344,0.326,-,0.112,�k��,2.7,��
2017/06/16,13:50,0.357,0.221,0.369,0.344,0.323,-,0.113,�k��,2.0,��
2017/06/16,14:00,0.362,0.221,0.364,0.341,0.327,-,0.114,���쓌,0.8,��
2017/06/16,14:10,0.361,0.223,0.367,0.340,0.326,-,0.113,���쓌,0.9,��
2017/06/16,14:20,0.358,0.221,0.367,0.344,0.323,-,0.113,�k��,2.2,��
2017/06/16,14:30,0.363,0.221,0.366,0.343,0.325,-,0.114,�k��,12.8,�L
2017/06/16,14:40,0.362,0.223,0.365,0.340,0.328,-,0.114,���k��,11.8,�L
2017/06/16,14:50,0.363,0.226,0.371,0.346,0.325,-,0.117,���k��,7.4,�L
2017/06/16,15:00,0.367,0.230,0.370,0.346,0.333,-,0.121,�k�k��,4.7,�L
2017/06/16,15:10,0.365,0.231,0.375,0.350,0.332,-,0.123,�k,6.2,�L
2017/06/16,15:20,0.371,0.234,0.371,0.350,0.335,-,0.124,�k�k��,6.5,�L
2017/06/16,15:30,0.369,0.240,0.374,0.348,0.332,-,0.124,�k,3.3,�L
2017/06/16,15:40,0.378,0.246,0.371,0.342,0.330,-,0.129,��,6.4,�L
2017/06/16,15:50,0.379,0.250,0.384,0.349,0.338,-,0.132,���쐼,0.9,�L
2017/06/16,16:00,0.383,0.252,0.381,0.352,0.340,-,0.134,���k��,7.4,�L
2017/06/16,16:10,0.378,0.250,0.387,0.354,0.342,-,0.133,�쐼,3.3,��
2017/06/16,16:20,0.378,0.247,0.380,0.352,0.337,-,0.130,��쓌,0.5,��
2017/06/16,16:30,0.371,0.241,0.381,0.351,0.338,-,0.127,���쓌,0.8,��
2017/06/16,16:40,0.368,0.239,0.374,0.348,0.332,-,0.124,�k�k��,2.1,��
2017/06/16,16:50,0.364,0.231,0.375,0.343,0.333,-,0.122,�k,3.7,��
2017/06/16,17:00,0.360,0.231,0.368,0.343,0.328,-,0.121,�k,3.0,�L
2017/06/16,17:10,0.359,0.229,0.372,0.341,0.330,-,0.119,�k��,2.5,�L
2017/06/16,17:20,0.355,0.227,0.365,0.341,0.327,0.180,0.118,�k��,2.7,�L
2017/06/16,17:30,0.356,0.224,0.366,0.336,0.326,0.181,0.116,�k��,3.6,��
2017/06/16,17:40,0.351,0.223,0.362,0.340,0.326,0.179,0.115,�k�k��,5.6,��
2017/06/16,17:50,0.353,0.221,0.362,0.335,0.323,0.179,0.115,�k,9.5,��
2017/06/16,18:00,0.350,0.220,0.360,0.336,0.323,0.176,0.114,�k,8.9,��
2017/06/16,18:10,0.352,0.219,0.360,0.335,0.322,0.178,0.114,�k�k��,8.1,�L
2017/06/16,18:20,0.350,0.219,0.360,0.336,0.325,0.177,0.113,�k,7.7,�L
2017/06/16,18:30,0.351,0.219,0.360,0.335,0.321,0.178,0.114,�k�k��,7.2,�L
2017/06/16,18:40,0.348,0.220,0.358,0.335,0.324,0.176,0.113,�k,8.0,��
2017/06/16,18:50,0.350,0.218,0.361,0.333,0.321,0.177,0.113,�k�k��,6.7,��
2017/06/16,19:00,0.348,0.218,0.358,0.336,0.324,0.176,0.112,�k�k��,5.9,��
2017/06/16,19:10,0.351,0.218,0.361,0.333,0.320,0.175,0.112,�k�k��,5.7,��
2017/06/16,19:20,0.349,0.217,0.358,0.336,0.324,0.176,0.112,�k�k��,5.5,��
2017/06/16,19:30,0.349,0.218,0.360,0.333,0.322,0.176,0.113,�k�k��,4.8,��
2017/06/16,19:40,0.349,0.216,0.356,0.335,0.323,0.176,0.111,�k��,4.5,��
2017/06/16,19:50,0.351,0.217,0.359,0.334,0.321,0.177,0.111,�k��,5.8,��
2017/06/16,20:00,0.348,0.216,0.355,0.335,0.323,0.176,0.112,�k�k��,7.4,��
2017/06/16,20:10,0.349,0.216,0.358,0.333,0.321,0.176,0.111,�k�k��,7.3,��
2017/06/16,20:20,0.348,0.217,0.357,0.335,0.323,0.176,0.112,�k�k��,8.6,��
2017/06/16,20:30,0.348,0.217,0.359,0.334,0.321,0.176,0.111,�k�k��,8.9,��
2017/06/16,20:40,0.348,0.218,0.357,0.335,0.324,0.176,0.112,�k��,8.4,��
2017/06/16,20:50,0.350,0.215,0.359,0.334,0.321,0.177,0.111,�k�k��,8.6,��
2017/06/16,21:00,0.349,0.218,0.357,0.336,0.322,0.176,0.111,�k�k��,7.7,��
2017/06/16,21:10,0.351,0.217,0.360,0.333,0.321,0.176,0.112,�k�k��,7.6,��
2017/06/16,21:20,0.347,0.218,0.357,0.335,0.321,0.175,0.111,�k�k��,6.1,��
2017/06/16,21:30,0.350,0.216,0.359,0.335,0.322,0.177,0.112,�k�k��,6.1,��
2017/06/16,21:40,0.349,0.216,0.358,0.335,0.322,0.176,0.112,�k��,6.2,��
2017/06/16,21:50,0.352,0.216,0.357,0.335,0.323,0.176,0.111,�k�k��,6.8,��
2017/06/16,22:00,0.348,0.217,0.360,0.334,0.321,0.176,0.111,�k�k��,5.6,��
2017/06/16,22:10,0.351,0.217,0.359,0.335,0.323,0.176,0.112,�k�k��,5.0,��
2017/06/16,22:20,0.349,0.217,0.360,0.334,0.321,0.177,0.111,�k�k��,5.4,��
2017/06/16,22:30,0.349,0.218,0.358,0.336,0.323,0.176,0.110,�k�k��,6.2,��
2017/06/16,22:40,0.350,0.217,0.361,0.335,0.323,0.176,0.112,�k,6.7,��
2017/06/16,22:50,0.350,0.217,0.359,0.336,0.323,0.177,0.111,�k,4.9,��
2017/06/16,23:00,0.350,0.218,0.359,0.335,0.323,0.176,0.111,�k,5.9,��
2017/06/16,23:10,0.350,0.217,0.358,0.336,0.322,0.176,0.112,�k,6.4,��
2017/06/16,23:20,0.351,0.216,0.359,0.335,0.323,0.177,0.112,�k,7.0,��
2017/06/16,23:30,0.350,0.218,0.360,0.335,0.321,0.176,0.111,�k,7.2,��
2017/06/16,23:40,0.351,0.218,0.358,0.336,0.325,0.176,0.111,�k,7.2,��
2017/06/16,23:50,0.351,0.218,0.361,0.335,0.321,0.178,0.112,�k,8.6,��
